カタログに戻る

STARLINK-37790

運用中通信SSO
NORAD 69312·PAYLOAD·🇺🇸 United States

打ち上げ May 30, 2026 から Vandenberg Space Force Base

Loading…

次のパス (今後24時間)

TLE

最新Source: CelesTrak SupGP

元期: Sep 14, 2026, 22:39 UTC

1 69312C 26119S   26257.94423611  .00036346  00000+0  11284-2 0  2578
2 69312  97.2829 282.7959 0001340  96.0444 285.5791 15.33417351    18

AllMySatでSTARLINK-37790をリアルタイム追跡

Download on the App Store